Time,TemperatureF,DewpointF,PressureIn,WindDirection,WindDirectionDegrees,WindSpeedMPH,WindSpeedGustMPH,Humidity,HourlyPrecipIn,Conditions,Clouds,dailyrainin,SoftwareType,DateUTC
2013-01-10 00:00:00,35.0,24.0,30.42,WNW,300,20.0,-999.0,64,-99.99,,,-99.99,,2013-01-10 05:00:00,
2013-01-10 00:22:00,35.0,24.0,30.42,WNW,300,20.0,-999.0,64,-99.99,,,-99.99,,2013-01-10 05:22:00,
2013-01-10 00:32:00,35.0,24.0,30.42,WNW,300,20.0,-999.0,64,-99.99,,,-99.99,,2013-01-10 05:32:00,
2013-01-10 00:42:00,35.0,24.0,30.42,WNW,300,20.0,-999.0,64,-99.99,,,-99.99,,2013-01-10 05:42:00,
2013-01-10 00:52:00,35.0,24.0,30.42,WNW,300,20.0,-999.0,64,-99.99,,,-99.99,,2013-01-10 05:52:00,
2013-01-10 01:00:00,35.0,24.0,30.39,NNW,340,17.0,-999.0,63,-99.99,,,-99.99,,2013-01-10 06:00:00,
2013-01-10 01:22:00,35.0,24.0,30.39,NNW,340,17.0,-999.0,63,-99.99,,,-99.99,,2013-01-10 06:22:00,
2013-01-10 01:32:00,35.0,24.0,30.39,NNW,340,17.0,-999.0,63,-99.99,,,-99.99,,2013-01-10 06:32:00,
2013-01-10 01:42:00,35.0,24.0,30.39,NNW,340,17.0,-999.0,63,-99.99,,,-99.99,,2013-01-10 06:42:00,
2013-01-10 01:52:00,35.0,24.0,30.39,NNW,340,17.0,-999.0,63,-99.99,,,-99.99,,2013-01-10 06:52:00,
2013-01-10 02:00:00,35.0,24.0,30.40,North,10,13.0,-999.0,64,-99.99,,,-99.99,,2013-01-10 07:00:00,
2013-01-10 02:22:00,35.0,24.0,30.40,North,10,13.0,-999.0,64,-99.99,,,-99.99,,2013-01-10 07:22:00,
2013-01-10 02:32:00,35.0,24.0,30.40,North,10,13.0,-999.0,64,-99.99,,,-99.99,,2013-01-10 07:32:00,
2013-01-10 02:42:00,35.0,24.0,30.40,North,10,13.0,-999.0,64,-99.99,,,-99.99,,2013-01-10 07:42:00,
2013-01-10 02:52:00,35.0,24.0,30.40,North,10,13.0,-999.0,64,-99.99,,,-99.99,,2013-01-10 07:52:00,
2013-01-10 03:00:00,36.0,25.0,30.45,NNE,20,5.0,-999.0,63,-99.99,,,-99.99,,2013-01-10 08:00:00,
2013-01-10 03:21:00,36.0,25.0,30.45,NNE,20,5.0,-999.0,63,-99.99,,,-99.99,,2013-01-10 08:21:00,
2013-01-10 03:32:00,36.0,25.0,30.45,NNE,20,5.0,-999.0,63,-99.99,,,-99.99,,2013-01-10 08:32:00,
2013-01-10 03:42:00,36.0,25.0,30.45,NNE,20,5.0,-999.0,63,-99.99,,,-99.99,,2013-01-10 08:42:00,
2013-01-10 03:52:00,36.0,25.0,30.45,NNE,20,5.0,-999.0,63,-99.99,,,-99.99,,2013-01-10 08:52:00,
2013-01-10 04:00:00,36.0,25.0,30.48,SSE,150,5.0,-999.0,64,-99.99,,,-99.99,,2013-01-10 09:00:00,
2013-01-10 04:22:00,36.0,25.0,30.48,SSE,150,5.0,-999.0,64,-99.99,,,-99.99,,2013-01-10 09:22:00,
2013-01-10 04:32:00,36.0,25.0,30.48,SSE,150,5.0,-999.0,64,-99.99,,,-99.99,,2013-01-10 09:32:00,
2013-01-10 04:42:00,36.0,25.0,30.48,SSE,150,5.0,-999.0,64,-99.99,,,-99.99,,2013-01-10 09:42:00,
2013-01-10 04:52:00,36.0,25.0,30.48,SSE,150,5.0,-999.0,64,-99.99,,,-99.99,,2013-01-10 09:52:00,
2013-01-10 05:00:00,36.0,26.0,30.50,South,170,6.0,-999.0,64,-99.99,,,-99.99,,2013-01-10 10:00:00,
2013-01-10 05:22:00,36.0,26.0,30.50,South,170,6.0,-999.0,64,-99.99,,,-99.99,,2013-01-10 10:22:00,
2013-01-10 05:32:00,36.0,26.0,30.50,South,170,6.0,-999.0,64,-99.99,,,-99.99,,2013-01-10 10:32:00,
2013-01-10 05:42:00,36.0,26.0,30.50,South,170,6.0,-999.0,64,-99.99,,,-99.99,,2013-01-10 10:42:00,
2013-01-10 05:52:00,36.0,26.0,30.50,South,170,6.0,-999.0,64,-99.99,,,-99.99,,2013-01-10 10:52:00,
2013-01-10 06:00:00,37.0,27.0,30.49,South,180,15.0,-999.0,67,-99.99,,,-99.99,,2013-01-10 11:00:00,
2013-01-10 06:22:00,37.0,27.0,30.49,South,180,15.0,-999.0,67,-99.99,,,-99.99,,2013-01-10 11:22:00,
2013-01-10 06:32:00,37.0,27.0,30.49,South,180,15.0,-999.0,67,-99.99,,,-99.99,,2013-01-10 11:32:00,
2013-01-10 06:42:00,37.0,27.0,30.49,South,180,15.0,-999.0,67,-99.99,,,-99.99,,2013-01-10 11:42:00,
2013-01-10 06:52:00,37.0,27.0,30.49,South,180,15.0,-999.0,67,-99.99,,,-99.99,,2013-01-10 11:52:00,
2013-01-10 07:00:00,37.0,28.0,30.50,South,190,13.0,-999.0,69,-99.99,,,-99.99,,2013-01-10 12:00:00,
2013-01-10 07:32:00,37.0,28.0,30.50,South,190,13.0,-999.0,69,-99.99,,,-99.99,,2013-01-10 12:32:00,
2013-01-10 07:42:00,37.0,28.0,30.50,South,190,13.0,-999.0,69,-99.99,,,-99.99,,2013-01-10 12:42:00,
2013-01-10 07:52:00,37.0,28.0,30.50,South,190,13.0,-999.0,69,-99.99,,,-99.99,,2013-01-10 12:52:00,
2013-01-10 08:00:00,37.0,29.0,30.49,South,190,16.0,-999.0,70,-99.99,,,-99.99,,2013-01-10 13:00:00,
2013-01-10 08:22:00,37.0,29.0,30.49,South,190,16.0,-999.0,70,-99.99,,,-99.99,,2013-01-10 13:22:00,
2013-01-10 08:32:00,37.0,29.0,30.49,South,190,16.0,-999.0,70,-99.99,,,-99.99,,2013-01-10 13:32:00,
2013-01-10 08:42:00,37.0,29.0,30.49,South,190,16.0,-999.0,70,-99.99,,,-99.99,,2013-01-10 13:42:00,
2013-01-10 08:52:00,37.0,29.0,30.49,South,190,16.0,-999.0,70,-99.99,,,-99.99,,2013-01-10 13:52:00,
2013-01-10 09:00:00,38.0,31.0,30.51,SSW,200,17.0,-999.0,74,-99.99,,,-99.99,,2013-01-10 14:00:00,
2013-01-10 09:22:00,38.0,31.0,30.51,SSW,200,17.0,-999.0,74,-99.99,,,-99.99,,2013-01-10 14:22:00,
2013-01-10 09:32:00,38.0,31.0,30.51,SSW,200,17.0,-999.0,74,-99.99,,,-99.99,,2013-01-10 14:32:00,
2013-01-10 09:42:00,38.0,31.0,30.51,SSW,200,17.0,-999.0,74,-99.99,,,-99.99,,2013-01-10 14:42:00,
2013-01-10 09:52:00,38.0,31.0,30.51,SSW,200,17.0,-999.0,74,-99.99,,,-99.99,,2013-01-10 14:52:00,
2013-01-10 10:00:00,38.0,30.0,30.49,SSW,200,15.0,-999.0,70,-99.99,,,-99.99,,2013-01-10 15:00:00,
2013-01-10 10:22:00,38.0,30.0,30.49,SSW,200,15.0,-999.0,70,-99.99,,,-99.99,,2013-01-10 15:22:00,
2013-01-10 10:32:00,38.0,30.0,30.49,SSW,200,15.0,-999.0,70,-99.99,,,-99.99,,2013-01-10 15:32:00,
2013-01-10 10:42:00,38.0,30.0,30.49,SSW,200,15.0,-999.0,70,-99.99,,,-99.99,,2013-01-10 15:42:00,
2013-01-10 10:52:00,38.0,30.0,30.49,SSW,200,15.0,-999.0,70,-99.99,,,-99.99,,2013-01-10 15:52:00,
2013-01-10 11:00:00,37.0,30.0,30.47,South,190,14.0,-999.0,74,-99.99,,,-99.99,,2013-01-10 16:00:00,
2013-01-10 11:22:00,37.0,30.0,30.47,South,190,14.0,-999.0,74,-99.99,,,-99.99,,2013-01-10 16:22:00,
2013-01-10 11:32:00,37.0,30.0,30.47,South,190,14.0,-999.0,74,-99.99,,,-99.99,,2013-01-10 16:32:00,
2013-01-10 11:42:00,37.0,30.0,30.47,South,190,14.0,-999.0,74,-99.99,,,-99.99,,2013-01-10 16:42:00,
2013-01-10 11:52:00,37.0,30.0,30.47,South,190,14.0,-999.0,74,-99.99,,,-99.99,,2013-01-10 16:52:00,
2013-01-10 12:00:00,35.0,31.0,30.47,South,180,15.0,-999.0,85,-99.99,,,-99.99,,2013-01-10 17:00:00,
2013-01-10 12:33:00,35.0,31.0,30.47,South,180,15.0,-999.0,85,-99.99,,,-99.99,,2013-01-10 17:33:00,
2013-01-10 12:42:00,35.0,31.0,30.47,South,180,15.0,-999.0,85,-99.99,,,-99.99,,2013-01-10 17:42:00,
2013-01-10 12:52:00,35.0,31.0,30.47,South,180,15.0,-999.0,85,-99.99,,,-99.99,,2013-01-10 17:52:00,
2013-01-10 13:00:00,35.0,27.0,30.46,SE,140,8.0,-999.0,72,-99.99,,,-99.99,,2013-01-10 18:00:00,
2013-01-10 13:22:00,35.0,27.0,30.46,SE,140,8.0,-999.0,72,-99.99,,,-99.99,,2013-01-10 18:22:00,
2013-01-10 13:32:00,35.0,27.0,30.46,SE,140,8.0,-999.0,72,-99.99,,,-99.99,,2013-01-10 18:32:00,
2013-01-10 13:43:00,35.0,27.0,30.46,SE,140,8.0,-999.0,72,-99.99,,,-99.99,,2013-01-10 18:43:00,
2013-01-10 13:52:00,35.0,27.0,30.46,SE,140,8.0,-999.0,72,-99.99,,,-99.99,,2013-01-10 18:52:00,
2013-01-10 14:00:00,35.0,27.0,30.42,SE,140,13.0,-999.0,72,-99.99,,,-99.99,,2013-01-10 19:00:00,
2013-01-10 14:22:00,35.0,27.0,30.42,SE,140,13.0,-999.0,72,-99.99,,,-99.99,,2013-01-10 19:22:00,
2013-01-10 14:32:00,35.0,27.0,30.42,SE,140,13.0,-999.0,72,-99.99,,,-99.99,,2013-01-10 19:32:00,
2013-01-10 14:42:00,35.0,27.0,30.42,SE,140,13.0,-999.0,72,-99.99,,,-99.99,,2013-01-10 19:42:00,
2013-01-10 14:52:00,35.0,27.0,30.42,SE,140,13.0,-999.0,72,-99.99,,,-99.99,,2013-01-10 19:52:00,
2013-01-10 15:00:00,36.0,30.0,30.41,ESE,110,10.0,-999.0,76,-99.99,,,-99.99,,2013-01-10 20:00:00,
2013-01-10 15:22:00,36.0,30.0,30.41,ESE,110,10.0,-999.0,76,-99.99,,,-99.99,,2013-01-10 20:22:00,
2013-01-10 15:32:00,36.0,30.0,30.41,ESE,110,10.0,-999.0,76,-99.99,,,-99.99,,2013-01-10 20:32:00,
2013-01-10 15:42:00,36.0,30.0,30.41,ESE,110,10.0,-999.0,76,-99.99,,,-99.99,,2013-01-10 20:42:00,
2013-01-10 15:52:00,36.0,30.0,30.41,ESE,110,10.0,-999.0,76,-99.99,,,-99.99,,2013-01-10 20:52:00,
2013-01-10 16:00:00,39.0,32.0,30.39,SE,130,15.0,-999.0,75,-99.99,,,-99.99,,2013-01-10 21:00:00,
2013-01-10 16:22:00,39.0,32.0,30.39,SE,130,15.0,-999.0,75,-99.99,,,-99.99,,2013-01-10 21:22:00,
2013-01-10 16:32:00,39.0,32.0,30.39,SE,130,15.0,-999.0,75,-99.99,,,-99.99,,2013-01-10 21:32:00,
2013-01-10 16:42:00,39.0,32.0,30.39,SE,130,15.0,-999.0,75,-99.99,,,-99.99,,2013-01-10 21:42:00,
2013-01-10 16:52:00,39.0,32.0,30.39,SE,130,15.0,-999.0,75,-99.99,,,-99.99,,2013-01-10 21:52:00,
2013-01-10 17:00:00,39.0,31.0,30.37,SE,140,17.0,-999.0,72,-99.99,,,-99.99,,2013-01-10 22:00:00,
2013-01-10 17:22:00,39.0,31.0,30.37,SE,140,17.0,-999.0,72,-99.99,,,-99.99,,2013-01-10 22:22:00,
2013-01-10 17:32:00,39.0,31.0,30.37,SE,140,17.0,-999.0,72,-99.99,,,-99.99,,2013-01-10 22:32:00,
2013-01-10 17:42:00,39.0,31.0,30.37,SE,140,17.0,-999.0,72,-99.99,,,-99.99,,2013-01-10 22:42:00,
2013-01-10 18:00:00,38.0,32.0,30.36,SSE,160,20.0,-999.0,78,-99.99,,,-99.99,,2013-01-10 23:00:00,
2013-01-10 18:22:00,38.0,32.0,30.36,SSE,160,20.0,-999.0,78,-99.99,,,-99.99,,2013-01-10 23:22:00,
2013-01-10 18:32:00,38.0,32.0,30.36,SSE,160,20.0,-999.0,78,-99.99,,,-99.99,,2013-01-10 23:32:00,
2013-01-10 18:42:00,38.0,32.0,30.36,SSE,160,20.0,-999.0,78,-99.99,,,-99.99,,2013-01-10 23:42:00,
2013-01-10 18:52:00,38.0,32.0,30.36,SSE,160,20.0,-999.0,78,-99.99,,,-99.99,,2013-01-10 23:52:00,
2013-01-10 20:00:00,38.0,33.0,30.35,SSE,160,28.0,-999.0,80,-99.99,,,-99.99,,2013-01-11 01:00:00,
2013-01-10 20:22:00,38.0,33.0,30.35,SSE,160,28.0,-999.0,80,-99.99,,,-99.99,,2013-01-11 01:22:00,
2013-01-10 20:32:00,38.0,33.0,30.35,SSE,160,28.0,-999.0,80,-99.99,,,-99.99,,2013-01-11 01:32:00,
2013-01-10 20:42:00,38.0,33.0,30.35,SSE,160,28.0,-999.0,80,-99.99,,,-99.99,,2013-01-11 01:42:00,
2013-01-10 20:52:00,38.0,33.0,30.35,SSE,160,28.0,-999.0,80,-99.99,,,-99.99,,2013-01-11 01:52:00,
2013-01-10 21:00:00,39.0,33.0,30.31,South,170,29.0,-999.0,81,-99.99,,,-99.99,,2013-01-11 02:00:00,
2013-01-10 21:22:00,39.0,33.0,30.31,South,170,29.0,-999.0,81,-99.99,,,-99.99,,2013-01-11 02:22:00,
2013-01-10 21:32:00,39.0,33.0,30.31,South,170,29.0,-999.0,81,-99.99,,,-99.99,,2013-01-11 02:32:00,
2013-01-10 21:42:00,39.0,33.0,30.31,South,170,29.0,-999.0,81,-99.99,,,-99.99,,2013-01-11 02:42:00,
2013-01-10 21:52:00,39.0,33.0,30.31,South,170,29.0,-999.0,81,-99.99,,,-99.99,,2013-01-11 02:52:00,
2013-01-10 22:00:00,38.0,33.0,30.28,SSE,160,26.0,-999.0,79,-99.99,,,-99.99,,2013-01-11 03:00:00,
2013-01-10 22:22:00,38.0,33.0,30.28,SSE,160,26.0,-999.0,79,-99.99,,,-99.99,,2013-01-11 03:22:00,
2013-01-10 22:32:00,38.0,33.0,30.28,SSE,160,26.0,-999.0,79,-99.99,,,-99.99,,2013-01-11 03:32:00,
2013-01-10 22:42:00,38.0,33.0,30.28,SSE,160,26.0,-999.0,79,-99.99,,,-99.99,,2013-01-11 03:42:00,
2013-01-10 22:52:00,38.0,33.0,30.28,SSE,160,26.0,-999.0,79,-99.99,,,-99.99,,2013-01-11 03:52:00,
2013-01-10 23:00:00,38.0,33.0,30.25,SSE,160,25.0,-999.0,79,-99.99,,,-99.99,,2013-01-11 04:00:00,
2013-01-10 23:22:00,38.0,33.0,30.25,SSE,160,25.0,-999.0,79,-99.99,,,-99.99,,2013-01-11 04:22:00,
2013-01-10 23:32:00,38.0,33.0,30.25,SSE,160,25.0,-999.0,79,-99.99,,,-99.99,,2013-01-11 04:32:00,
2013-01-10 23:42:00,38.0,33.0,30.25,SSE,160,25.0,-999.0,79,-99.99,,,-99.99,,2013-01-11 04:42:00,
2013-01-10 23:52:00,38.0,33.0,30.25,SSE,160,25.0,-999.0,79,-99.99,,,-99.99,,2013-01-11 04:52:00,